Helicity
42 33 23 26 46 51 44 33 31 3 -16 -23 -35 -13 12 36 65 94 100 103 121 119 173 170 149 272 293 302 464 205 210 307 221 349 190 333 267 319 311 287 221 130 164
52 49 41 32 34 42 59 82 93 83 70 51 33 14 12 24 61 88 104 147 131 165 193 249 196 248 242 317 344 314 215 272 393 358 498 349 365 279 287 272 160 202 220
68 80 68 45 40 32 27 41 41 62 73 47 58 66 72 71 71 60 74 134 187 191 199 180 117 232 224 270 237 251 278 372 450 551 384 342 361 380 297 184 208 243 200
89 92 80 72 52 39 21 3 18 40 -6 46 60 30 25 21 20 49 79 114 79 126 143 152 186 239 229 243 295 286 351 389 404 344 334 408 367 272 267 269 285 205 244
95 104 107 85 67 66 58 80 104 99 46 17 28 29 31 30 36 51 60 75 60 114 202 248 259 245 241 226 259 333 359 429 438 441 354 362 347 336 297 317 326 232 255
72 75 73 71 64 43 48 93 70 40 26 35 57 45 11 33 90 124 135 152 237 313 326 355 365 399 410 472 464 507 427 359 394 373 402 385 313 293 274 307 281 242 273
24 28 46 42 36 46 45 52 60 31 40 24 5 28 63 140 167 199 259 360 378 380 387 398 419 440 463 464 501 519 582 525 438 406 380 267 245 338 322 313 228 274 278
45 41 61 69 60 74 90 83 120 86 72 82 118 168 201 209 225 303 409 420 452 466 447 419 417 400 409 330 381 391 364 330 348 267 218 257 273 248 253 241 225 239 229
87 87 97 113 130 173 199 222 207 194 199 203 203 229 251 280 331 330 371 398 433 452 440 422 345 287 277 309 279 308 327 284 220 247 279 271 233 205 215 258 247 238 203
151 173 201 231 240 236 252 290 316 336 335 327 334 315 333 356 368 359 335 336 379 369 360 339 317 282 289 273 252 249 229 217 202 212 229 205 175 189 218 229 253 244 241
281 255 269 304 330 356 387 363 363 379 393 397 444 463 474 425 391 350 332 312 281 287 295 293 280 258 232 242 241 232 251 260 252 216 192 172 181 212 233 251 239 236 246
337 444 446 453 440 411 411 370 351 365 398 420 467 509 509 467 425 359 367 321 273 256 248 248 227 216 257 280 280 253 225 190 188 192 211 222 251 260 250 210 187 196 207
488 478 497 516 456 387 387 350 355 345 370 388 399 414 402 368 387 403 378 352 324 257 219 219 170 177 166 175 194 170 138 190 201 211 219 215 217 223 219 186 182 182 182
510 484 470 499 501 470 397 350 337 342 334 345 371 387 371 361 342 328 322 300 250 199 157 137 145 148 187 194 100 113 171 209 209 192 200 212 207 201 199 198 209 202 213
460 439 455 475 446 467 533 440 413 396 296 313 341 350 341 362 324 286 233 184 166 143 113 117 136 141 131 141 144 148 164 177 187 213 218 216 219 225 227 225 216 221 225
346 360 339 358 414 422 463 636 602 479 474 404 334 331 336 277 258 239 220 203 191 149 168 215 213 194 192 196 200 211 210 212 246 254 240 241 247 256 247 234 213 220 260
264 262 313 339 354 396 365 381 429 501 456 392 340 301 290 268 249 216 187 196 208 132 211 206 206 202 200 214 232 238 240 253 237 219 238 238 244 267 254 247 238 238 236
441 408 394 383 323 309 315 293 266 296 332 329 350 295 291 274 277 271 200 113 170 195 205 214 226 225 223 236 243 257 257 250 231 234 253 247 241 237 231 223 218 224 210
491 493 415 488 465 394 333 338 308 283 245 204 182 224 231 232 242 261 251 215 218 221 212 223 223 226 226 219 211 195 184 188 193 183 191 192 192 194 181 171 162 141 127
517 482 504 441 362 340 333 287 258 233 227 233 237 221 172 174 191 197 206 204 203 199 188 179 171 160 149 134 128 135 132 130 131 130 127 116 108 108 106 98 97 91 83
329 331 300 260 266 267 250 232 215 206 199 191 197 216 246 189 180 182 175 167 164 155 146 136 126 116 105 105 115 113 96 87 80 75 69 62 63 60 58 59 58 56 53
294 281 255 242 222 218 210 194 184 175 171 170 164 182 201 184 175 163 148 135 125 116 104 97 90 89 86 93 86 79 71 67 60 56 50 48 48 50 54 50 47 46 41
209 196 192 186 170 162 159 158 158 161 163 163 156 152 150 140 127 119 113 99 93 92 92 83 74 72 63 67 68 64 59 56 55 53 45 41 44 47 46 42 39 37 31
148 141 133 133 133 135 142 147 154 169 152 141 127 117 111 100 97 97 96 103 100 92 77 65 62 52 60 61 60 58 52 49 46 37 25 37 43 42 47 41 37 25 26
130 132 136 135 134 133 131 134 131 124 117 107 101 96 96 97 103 108 104 93 93 78 73 64 61 55 46 42 30 20 23 23 30 27 51 54 57 50 55 53 43 32 15
117 120 118 117 122 122 113 106 101 95 95 95 97 104 114 120 116 103 89 76 81 72 56 60 50 38 30 30 26 29 25 25 38 43 65 80 85 76 65 56 43 25 19
Wind_Speed
36 36 38 41 48 51 48 49 50 44 43 41 34 32 29 31 35 38 36 38 45 50 47 52 64 59 58 49 52 50 55 50 54 47 32 30 30 29 34 41 42 45 48
31 31 33 35 39 47 51 46 40 41 36 34 32 33 32 32 36 45 50 55 44 49 51 64 60 54 39 37 41 38 48 47 50 43 38 37 38 38 43 44 46 51 56
30 30 29 33 38 42 41 39 38 36 40 37 34 35 37 35 35 34 36 44 48 45 52 40 33 34 35 37 38 43 44 45 44 48 40 44 48 47 48 50 57 60 56
24 26 30 34 36 34 31 29 30 34 38 31 33 37 36 37 36 35 35 36 37 38 38 37 36 38 43 42 45 45 43 44 41 41 50 52 53 50 53 63 64 59 61
23 23 25 23 25 26 24 22 22 20 24 25 24 25 37 33 29 31 33 35 39 39 37 41 45 48 45 43 44 43 43 43 39 47 53 53 54 56 59 61 63 65 67
27 28 21 20 23 24 25 24 23 22 23 23 27 35 28 28 39 35 35 39 38 39 42 45 46 44 43 42 40 39 38 40 48 49 51 54 56 57 61 64 65 68 73
23 20 18 17 19 21 19 21 23 25 31 34 34 38 43 48 48 43 41 42 42 41 40 40 40 40 36 34 36 36 40 42 44 47 54 55 61 62 61 63 66 69 72
18 17 14 14 15 14 18 23 30 34 41 44 44 43 43 47 42 37 37 39 40 38 35 34 33 34 34 34 36 39 43 46 48 50 53 57 58 59 61 65 69 73 73
20 17 16 14 12 14 17 22 29 33 35 37 38 38 38 38 32 32 32 31 31 31 30 30 28 29 31 35 40 45 47 49 48 52 56 60 62 64 64 66 70 76 82
25 21 19 18 16 18 22 24 28 25 26 27 30 32 31 30 29 27 25 23 22 24 28 30 33 34 36 40 43 47 54 54 56 59 60 61 61 63 63 64 71 78 82
25 19 18 18 19 20 21 20 19 19 20 22 24 27 28 28 27 23 21 20 21 25 30 34 36 37 41 46 50 53 57 57 61 65 66 66 66 68 66 66 69 75 81
24 20 15 14 16 15 12 13 13 13 15 18 18 22 24 25 25 25 25 24 25 30 35 38 39 40 45 50 55 54 56 61 66 71 74 75 75 75 74 73 72 74 72
16 17 14 13 15 16 13 12 12 13 13 13 15 16 21 25 26 27 29 30 32 36 40 41 41 44 49 52 54 57 60 67 71 74 76 77 74 74 76 78 75 74 76
12 13 13 13 16 18 17 17 14 13 13 13 16 19 22 26 29 32 33 34 36 39 42 45 49 52 55 55 57 60 64 69 72 74 75 75 76 78 80 79 83 83 85
11 12 13 13 14 16 19 19 22 23 18 14 17 18 24 30 33 33 36 38 42 45 48 51 56 60 64 66 66 66 67 70 74 75 79 82 84 84 85 83 85 86 89
14 14 12 13 13 15 18 18 25 23 21 20 21 24 27 27 31 35 37 40 45 50 55 61 64 65 67 69 72 73 74 75 77 80 84 86 89 89 90 88 87 87 91
12 13 12 14 17 16 14 17 14 25 24 24 27 28 31 33 38 41 43 47 53 56 61 63 65 67 70 73 76 77 80 79 81 84 87 89 90 90 91 93 91 90 90
12 15 16 16 14 16 18 20 21 23 25 30 34 35 38 41 46 49 50 51 58 61 63 66 69 71 74 76 78 81 83 85 87 88 89 90 90 93 94 92 89 89 87
16 17 14 17 19 20 25 27 26 27 29 32 38 43 43 45 49 54 56 58 62 65 67 69 71 73 76 79 81 83 85 86 87 88 88 88 89 90 90 87 84 81 80
20 20 22 23 25 28 31 32 33 35 38 42 45 47 47 51 56 60 61 62 63 65 68 71 73 75 78 79 81 81 83 84 85 84 87 86 84 81 80 77 74 73 71
22 26 27 28 32 36 36 36 36 38 40 43 47 50 54 54 58 61 62 63 65 68 70 72 73 74 75 76 78 80 80 80 80 81 80 77 74 73 69 67 65 63 62
29 31 31 33 35 36 36 37 39 41 43 45 48 52 55 56 58 60 61 64 66 67 68 70 72 73 73 75 75 75 78 77 75 73 71 69 66 63 61 59 58 56 56
31 32 33 35 36 36 39 40 42 43 45 47 50 53 55 57 58 61 63 65 66 67 67 69 70 71 69 69 69 68 71 69 66 64 62 61 59 56 55 55 52 50 49
33 34 35 37 38 39 40 42 43 45 47 49 51 53 56 58 60 61 63 64 66 66 66 66 66 67 67 66 63 61 58 56 56 56 55 53 51 50 48 44 41 38 34
36 36 38 39 40 41 42 44 45 47 49 51 54 56 58 59 61 62 63 64 65 66 66 65 62 63 62 62 59 55 51 50 50 49 47 43 39 36 32 26 17 6 28
37 37 39 39 41 43 44 46 48 50 52 54 56 58 59 61 62 63 63 64 65 65 63 62 60 59 58 55 51 49 50 48 46 41 34 27 23 20 18 10 8 22 40
Wind_Direction
163 163 164 167 172 176 177 180 184 189 192 197 204 214 237 254 267 274 273 280 288 292 293 295 299 296 287 284 294 286 291 294 300 306 298 300 305 305 311 312 314 312 313
168 169 171 173 175 180 185 188 193 199 207 217 235 245 237 240 265 275 281 286 283 290 290 296 296 302 293 289 297 291 283 289 299 292 292 297 306 305 309 309 311 312 312
170 174 179 181 182 187 190 193 196 210 207 213 228 237 253 254 259 256 262 280 285 286 298 299 281 291 292 295 295 296 296 296 297 299 295 302 303 308 308 310 309 310 311
184 186 187 189 190 191 194 198 203 202 208 222 221 221 232 237 245 261 267 277 283 284 287 288 287 290 296 296 296 296 296 297 295 296 299 302 304 307 308 310 309 310 311
198 206 207 210 209 211 216 223 222 219 222 231 241 254 277 275 265 264 268 277 285 289 293 295 297 298 298 300 299 297 297 298 297 299 302 302 303 306 307 311 309 310 311
189 194 203 218 233 243 248 247 239 233 225 238 264 281 275 278 289 284 282 288 289 288 295 299 304 306 307 308 309 308 302 298 300 302 305 303 305 306 309 309 310 311 312
188 194 198 207 209 215 240 250 256 258 268 272 277 285 289 292 296 297 296 296 295 296 296 298 302 307 309 312 316 315 314 313 311 307 306 307 307 309 312 311 310 310 310
213 201 213 216 207 227 247 260 274 279 280 284 287 290 293 297 299 303 304 302 302 301 301 302 303 306 310 311 312 313 313 313 314 312 310 311 311 312 312 311 311 310 310
228 226 238 240 237 265 271 277 282 284 287 289 292 295 298 303 307 310 312 310 309 309 311 312 312 313 315 315 312 311 312 313 315 314 313 312 312 311 311 313 311 310 309
237 238 254 264 264 276 287 287 290 291 294 298 304 308 310 311 316 319 321 319 317 317 320 320 319 318 318 317 315 313 311 311 312 313 313 313 313 312 312 311 312 310 311
254 241 250 263 273 283 294 295 293 296 302 306 312 318 321 322 326 332 335 331 325 322 320 319 321 322 321 320 318 315 314 315 314 314 313 313 313 313 313 313 312 311 309
255 255 255 270 278 285 295 305 308 306 309 312 319 325 332 336 341 341 343 340 332 324 320 320 319 320 321 320 320 319 319 317 315 314 313 312 312 312 313 313 313 312 310
254 256 263 278 286 296 297 300 307 310 311 313 319 325 328 332 341 344 341 340 336 329 326 324 321 321 321 322 321 320 319 317 316 315 314 314 314 315 315 314 314 313 312
245 262 275 289 295 303 312 316 314 312 313 314 317 321 325 329 330 333 335 335 335 332 328 325 322 321 323 322 321 320 320 319 318 317 316 316 316 316 315 315 313 313 312
262 279 296 301 310 317 327 321 317 322 318 319 323 332 327 325 330 335 333 330 328 327 325 324 322 321 320 319 320 320 321 321 319 319 318 317 316 315 314 315 313 313 311
282 290 303 305 312 315 317 346 355 1 349 342 343 345 348 349 342 341 340 337 333 328 325 322 321 322 321 321 321 321 321 321 321 320 318 317 316 315 314 314 313 312 311
301 302 306 309 300 309 328 314 347 9 7 358 1 358 355 348 343 339 336 335 332 327 326 325 325 324 323 323 322 322 321 321 321 319 318 317 316 316 315 313 313 312 311
320 318 317 325 335 343 331 333 339 344 337 335 345 345 346 344 340 336 332 330 329 331 329 327 326 326 325 324 324 323 322 321 320 320 319 318 317 315 314 313 313 312 312
339 343 350 343 340 344 336 347 350 345 340 332 328 334 341 342 340 338 336 332 329 329 329 328 328 327 326 325 324 323 323 322 322 321 321 320 319 318 316 316 315 315 315
6 5 351 338 338 348 344 339 338 336 333 329 331 334 335 333 333 333 335 333 332 331 330 329 328 328 327 326 326 326 325 325 325 325 323 323 322 322 321 320 320 320 319
350 352 355 347 339 338 339 341 340 337 334 335 336 337 335 334 333 333 333 334 333 331 331 331 330 331 331 330 330 329 329 329 329 328 328 328 328 327 327 327 326 325 325
350 347 346 344 345 345 345 343 341 340 338 336 336 337 337 336 335 335 335 335 334 334 335 334 333 333 333 333 332 332 331 331 332 333 333 334 334 334 335 334 333 332 330
355 354 353 350 348 347 345 343 341 340 339 338 337 337 338 337 337 336 335 336 336 336 337 336 336 335 336 336 336 336 334 335 337 338 338 339 340 341 341 339 339 338 337
354 352 349 347 346 345 344 343 343 342 340 340 339 339 338 337 337 338 338 339 339 339 339 338 338 338 338 339 340 341 342 342 343 342 342 343 343 344 345 346 347 347 348
352 350 348 346 345 344 344 344 343 342 341 340 340 339 339 340 340 340 341 341 340 340 340 341 341 341 342 342 343 344 346 347 346 346 346 346 346 347 348 350 349 297 241
355 352 349 348 348 347 345 344 343 342 341 341 341 341 341 341 341 341 342 342 342 342 342 343 343 344 345 347 350 352 350 350 349 350 351 350 348 350 353 340 261 236 247